Regional Weather Roundup
Issued by NWS

Home | Current Version | Previous Version | Graphics & Text | Print | Product List | Glossary On
Versions: 1 2 3 4 5 6 7 8 9 10 11 12 13 14 15 16 17 18 19 20 21 22 23 24 25 26 27 28
000
ASUS45 KPSR 160510
RWRAZ

ARIZONA HOURLY REGIONAL WEATHER ROUNDUP
NATIONAL WEATHER SERVICE PHOENIX AZ
1000 PM MST TUE AUG 15 2017

NOTE: FAIR INDICATES FEW OR NO CLOUDS BELOW 12,000 FEET WITH NO
SIGNIFICANT WEATHER AND/OR OBSTRUCTIONS TO VISIBILITY.

AZZ001>003-036-160600-
NORTHWEST ARIZONA

CITY           SKY/WX    TMP DP  RH WIND       PRES   REMARKS
BULLHEAD CITY  CLEAR     91  41  17 SW6       29.71R
KINGMAN        CLEAR     69  40  34 SE8       29.92R
$$

AZZ004>008-015-016-018-160600-
NORTH CENTRAL ARIZONA

CITY           SKY/WX    TMP DP  RH WIND       PRES   REMARKS
GRAND CANYON   CLEAR     47  29  49 CALM      30.17R
WILLIAMS       CLEAR     50  32  50 S7        30.17R
PRESCOTT       CLEAR     61  36  39 SW7       30.06R
FLAGSTAFF      CLEAR     49  38  65 CALM      30.20R
PAYSON           N/A     70  37  30 CALM      30.08S
PAGE           CLEAR     76  24  14 S7        29.95R
$$

AZZ009>014-017-160600-
NORTHEAST ARIZONA

CITY           SKY/WX    TMP DP  RH WIND       PRES   REMARKS
WINSLOW        MOCLDY    64  43  46 SW5       30.05S
SAINT JOHNS    PTCLDY    68  42  38 W12       30.10R
WINDOW ROCK    MOCLDY    57  39  51 S5        30.17R
SHOW LOW       MOCLDY    61  41  48 S7        30.17S
$$

AZZ540-542>544-546-548-160600-
GREATER PHOENIX AREA

CITY           SKY/WX    TMP DP  RH WIND       PRES   REMARKS
PHOENIX        CLEAR     93  25   8 W9        29.76R
BUCKEYE        CLEAR     86  21   9 W8        29.76S
LUKE AFB       CLEAR     87  35  15 NW3       29.75R
DEER VALLEY    CLEAR     85  28  12 CALM      29.79R
SCOTTSDALE     CLEAR     90  31  12 N5        29.81R
MESA-GATEWAY   CLEAR     90  43  19 NW6       29.79R
$$

AZZ539-553-160600-
SOUTHWEST MARICOPA COUNTY AND PINAL COUNTY

CITY           SKY/WX    TMP DP  RH WIND       PRES   REMARKS
CASA GRANDE    CLEAR     87  35  15 NW5       29.81R
GILA BEND      CLEAR     85  14   7 S8        29.75R
$$

AZZ503-504-507>509-160600-
SOUTHEAST ARIZONA

CITY           SKY/WX    TMP DP  RH WIND       PRES   REMARKS
TUCSON         CLEAR     82  46  28 S5        29.93R
DAVIS-MONTHAN  CLEAR     79  49  34 SE9       29.92R
NOGALES        CLEAR     72  53  51 E5        30.03R
SIERRA VISTA   CLEAR     73  54  50 SW7       30.09R
DOUGLAS        CLEAR     71  60  68 SW8       30.05R
SAFFORD        CLEAR     78  53  41 N7        29.90S
$$

AZZ532-160600-
SOUTHWEST ARIZONA

CITY           SKY/WX    TMP DP  RH WIND       PRES   REMARKS
YUMA           NOT AVBL
$$

CAZ041-043-047-048-061-525>527-560>570-160600-
SOUTHERN CALIFORNIA

CITY           SKY/WX    TMP DP  RH WIND       PRES   REMARKS
DOWNTOWN L.A.  CLOUDY    69  60  73 CALM      29.91R
L.A. AIRPORT   MOCLDY    68  61  78 W8        29.92R
SAN DIEGO      PTCLDY    66  57  72 CALM      29.95R
BURBANK        MOCLDY    66  58  75 S6        29.92R
ONTARIO        CLEAR     64  57  78 W10       29.92R
RIVERSIDE      CLEAR     64  58  80 CALM      29.92R
PALM SPRINGS   CLEAR     84  53  34 NW20      29.73R
EL CENTRO NAS  CLEAR     84  43  23 W33G40    29.74R
IMPERIAL       CLEAR     84  47  27 W23G32    29.70S
BLYTHE         CLEAR     89  43  20 S9        29.72R
NEEDLES        CLEAR     95  34  11 S14       29.72R
$$

NVZ020-UTZ003-160600-
SOUTHERN NEVADA-UTAH

CITY           SKY/WX    TMP DP  RH WIND       PRES   REMARKS
LAS VEGAS      CLEAR     89  34  14 S9        29.78R
SALT LAKE CITY CLEAR     70  37  29 S5        29.97S
$$

NMZ009-TXZ055-160600-
NEW MEXICO-WEST TEXAS

CITY           SKY/WX    TMP DP  RH WIND       PRES   REMARKS
ALBUQUERQUE    PTCLDY    74  36  25 N7        30.07R
EL PASO        PTCLDY    82  59  45 W12       29.98R
$$


........................KEY........................
SKY/WX - SKY CONDITION/WEATHER
TMP    - TEMPERATURE IN FAHRENHEIT
DP     - DEW POINT IN FAHRENHEIT
RH     - RELATIVE HUMIDITY IN PERCENT
WIND   - DIRECTION AND SPEED IN MILES PER HOUR (MPH)
VRB    - VARIABLE WIND DIRECTION
PRES   - MEAN SEA LEVEL PRESSURE IN INCHES OF MERCURY
         F - FALLING PRESSURE   R - RISING PRESSURE
         S - STEADY PRESSURE
VSB    - VISIBILITY IN MILES
HX     - HEAT INDEX IN FAHRENHEIT
WCI    - WIND CHILL INDEX IN FAHRENHEIT
TC     - TEMPERATURE IN CELSIUS WHICH IS ALSO KNOWN AS
         TEMPERATURE IN CENTIGRADE
AFB    - AIR FORCE BASE
         LUKE AFB IS LUKE AIR FORCE BASE
         DAVIS-MONTHAN IS DAVIS-MONTHAN AIR FORCE BASE
NAS    - NAVAL AIR STATION
         EL CENTRO NAS IS EL CENTRO NAVAL AIR STATION
N/A    - NOT AVAILABLE





USA.gov is the U.S. government's official web portal to all federal, state and local government web resources and services.